Location: Asheville, NC
(35.6000°N, 82.5500°W)
Time: 01:40:36
(UTC-05:00)

Tiangong 2 - Pass Details

Date: 13 February 2018
Orbit: 384 x 388 km, 42.8° (Epoch: 21 February)

Event Time Altitude Azimuth Distance (km) Brightness Sun altitude
Rises 18:44:41 0° 259° (W) 2,254 7.6 -7.6°
Reaches altitude 10° 18:46:49 10° 267° (W) 1,401 5.6 -8.1°
Maximum altitude 18:49:51 42° 340° (NNW) 559 2.0 -8.7°
Enters shadow 18:52:46 11° 53° (NE) 1,360 3.3 -9.3°
